Weather History for George, South Africa

Change the Weather History Date:

Sunday, January 19, 2014

  Actual Average Record
Temperature  
Mean Temperature 66 °F -  
Max Temperature 74 °F 74 °F 71 °F (2015)
Min Temperature 59 °F 59 °F 59 °F (2015)
Cooling Degree Days 2    
Growing Degree Days 16 (Base 50)    
Moisture  
Dew Point 61 °F    
Average Humidity 77    
Maximum Humidity 94    
Minimum Humidity 59    
Precipitation  
Precipitation 0.00 in - - ()
Sea Level Pressure  
Sea Level Pressure 30.04 in    
Wind  
Wind Speed 4 mph ()    
Max Wind Speed 12 mph    
Max Gust Speed -    
Visibility 7.4 miles    
Events      
Averages and records for this station are not official NWS values.
T = Trace of Precipitation, MM = Missing Value Source: Averaged Metar Reports

Daily Weather History Graph

Daily Weather History Graph

Search for Another Location

Airport:

Trip Planner

Search our weather history database for the weather conditions in past years. The results will help you decide how hot, cold, wet, or windy it might be!

Date:

Astronomy

Jan. 19, 2014 Rise Set
Actual Time 5:38 AM SAST 7:43 PM SAST
Civil Twilight 5:10 AM SAST 8:11 PM SAST
Nautical Twilight 4:36 AM SAST 8:45 PM SAST
Astronomical Twilight 3:59 AM SAST 9:22 PM SAST
Moon 9:22 PM SAST (1/19) 8:29 AM SAST (1/19)
Length of Visible Light 15h 00m
Length of Day
14h 04m
Waning Gibbous, 91% of the Moon is Illuminated
Jan 19
Waning Gibbous
Jan 24
Last Quarter
Jan 30
New
Feb 6
First Quarter
Feb 15
Full

Hourly Weather History & Observations

Time (SAST) Temp. Dew Point Humidity Pressure Visibility Wind Dir Wind Speed Gust Speed Precip Events Conditions
12:00 AM 64.4 °F 60.8 °F 88% 30.06 in 6.2 mi NW 3.5 mph - N/A   Mostly Cloudy
1:00 AM 64.4 °F 60.8 °F 88% 30.06 in 6.2 mi North 3.5 mph - N/A   Mostly Cloudy
2:00 AM 63 °F 59 °F 83% 30.04 in 6 mi North 2.3 mph - -  
2:00 AM 62.6 °F 59.0 °F 88% 30.04 in 6.2 mi North 3.5 mph - N/A   Scattered Clouds
3:00 AM 60.8 °F 59.0 °F 94% 30.04 in - WSW 3.5 mph - N/A   Clear
4:00 AM 60.8 °F 57.2 °F 88% 30.01 in 6.2 mi North 4.6 mph - N/A   Partly Cloudy
5:00 AM 61 °F 58 °F 85% 30.03 in 12 mi NNW 4.6 mph - -   Partly Cloudy
5:00 AM 60.8 °F 57.2 °F 88% 30.01 in 6.2 mi NNW 4.6 mph - N/A   Scattered Clouds
6:00 AM 62.6 °F 57.2 °F 82% 30.04 in 6.2 mi NNE 2.3 mph - N/A   Scattered Clouds
7:00 AM 66.2 °F 62.6 °F 88% 30.04 in 6.2 mi Variable 1.2 mph - N/A   Scattered Clouds
8:00 AM 70 °F 62 °F 68% 30.06 in 12 mi 2.3 mph - -   Partly Cloudy
8:00 AM 69.8 °F 62.6 °F 78% 30.04 in 6.2 mi Variable 2.3 mph - N/A   Scattered Clouds
9:00 AM 69.8 °F 60.8 °F 73% 30.04 in 6.2 mi SE 3.5 mph - N/A   Mostly Cloudy
10:00 AM 69.8 °F 62.6 °F 78% 30.04 in 6.2 mi South 8.1 mph - N/A   Mostly Cloudy
11:00 AM 72 °F 62 °F 63% 30.06 in 12 mi SSE 6.9 mph - -   Mostly Cloudy
11:00 AM 71.6 °F 62.6 °F 73% 30.04 in 6.2 mi SSE 6.9 mph - N/A   Mostly Cloudy
12:00 PM 71.6 °F 60.8 °F 69% 30.04 in 6.2 mi SSE 6.9 mph - N/A   Mostly Cloudy
1:00 PM 71.6 °F 62.6 °F 73% 30.04 in 6.2 mi SSE 9.2 mph - N/A   Mostly Cloudy
2:00 PM 73 °F 62 °F 59% 30.05 in 12 mi SE 8.1 mph - -   Mostly Cloudy
2:00 PM 73.4 °F 60.8 °F 65% 30.04 in 6.2 mi SE 8.1 mph - N/A   Mostly Cloudy
3:00 PM 73.4 °F 62.6 °F 69% 30.04 in 6.2 mi SSE 11.5 mph - N/A   Mostly Cloudy
4:00 PM 73.4 °F 62.6 °F 69% 30.01 in 6.2 mi SSE 10.4 mph - N/A   Mostly Cloudy
5:00 PM 72 °F 62 °F 64% 30.02 in 12 mi SSE 10.4 mph - -   Mostly Cloudy
5:00 PM 71.6 °F 62.6 °F 73% 30.01 in 6.2 mi SSE 10.4 mph - N/A   Mostly Cloudy
6:00 PM 71.6 °F 62.6 °F 73% 30.01 in 6.2 mi SSE 9.2 mph - N/A   Mostly Cloudy
7:00 PM 69.8 °F 62.6 °F 78% 30.04 in 6.2 mi SE 8.1 mph - N/A   Mostly Cloudy
8:00 PM 69 °F 63 °F 76% 30.06 in 12 mi SE 5.8 mph - -   Mostly Cloudy
8:00 PM 69.8 °F 62.6 °F 78% 30.04 in 6.2 mi SE 5.8 mph - N/A   Mostly Cloudy
9:00 PM 69.8 °F 62.6 °F 78% 30.06 in 6.2 mi SE 3.5 mph - N/A   Overcast
10:00 PM 68.0 °F 62.6 °F 83% 30.06 in 6.2 mi ESE 3.5 mph - N/A   Mostly Cloudy
11:00 PM 68.0 °F 62.6 °F 83% 30.06 in 6.2 mi WSW 2.3 mph - N/A   Mostly Cloudy